Private Wetterstation Sandau
Wetterdaten: Woche 21.01.13 - 27.01.13 (KW4)
Datum Zeit Temp. A. Feuchte A. Luftdruck Regen Wind Richtung Taupunkt Windchill
21.01.2013 00:00 -3,3 C 84 % 1003,6 hPa 0,0 l/m 12,5 km/h (3 Bft) O -5,6 C -7,7 C
21.01.2013 01:00 -3,1 C 84 % 1003,9 hPa 0,0 l/m 8,3 km/h (2 Bft) O-SO -5,4 C -6,1 C
21.01.2013 02:00 -3,1 C 84 % 1004,1 hPa 0,0 l/m 9,1 km/h (2 Bft) O -5,5 C -6,4 C
21.01.2013 03:00 -3,1 C 84 % 1004,0 hPa 0,0 l/m 12,5 km/h (3 Bft) O-NO -5,5 C -7,5 C
21.01.2013 04:00 -2,9 C 84 % 1003,7 hPa 0,0 l/m 12,5 km/h (3 Bft) O-NO -5,2 C -7,2 C
21.01.2013 05:00 -2,9 C 84 % 1003,5 hPa 0,0 l/m 14,6 km/h (3 Bft) O-NO -5,2 C -7,7 C
21.01.2013 06:00 -3,2 C 85 % 1003,8 hPa 0,0 l/m 11,1 km/h (2 Bft) O-NO -5,4 C -7,1 C
21.01.2013 07:00 -3,5 C 88 % 1004,2 hPa 0,0 l/m 9,4 km/h (2 Bft) O-NO -5,2 C -7,0 C
21.01.2013 08:00 -3,5 C 89 % 1004,5 hPa 0,0 l/m 7,1 km/h (2 Bft) O-NO -5,0 C -5,8 C
21.01.2013 09:00 -3,0 C 88 % 1004,6 hPa 0,0 l/m 8,9 km/h (2 Bft) O -4,7 C -6,3 C
21.01.2013 10:00 -2,6 C 85 % 1004,8 hPa 0,0 l/m 10,4 km/h (2 Bft) O-NO -4,7 C -6,2 C
21.01.2013 11:00 -2,3 C 83 % 1004,8 hPa 0,0 l/m 11,9 km/h (2 Bft) O-NO -4,8 C -6,4 C
21.01.2013 12:00 -2,2 C 81 % 1004,6 hPa 0,0 l/m 13,4 km/h (3 Bft) O-NO -5,1 C -6,6 C
21.01.2013 13:00 -1,9 C 79 % 1004,2 hPa 0,0 l/m 13,2 km/h (3 Bft) NO -5,0 C -6,3 C
21.01.2013 14:00 -2,2 C 78 % 1004,1 hPa 0,0 l/m 11,6 km/h (2 Bft) O-NO -5,5 C -6,1 C
21.01.2013 15:00 -2,9 C 77 % 1004,3 hPa 0,0 l/m 10,5 km/h (2 Bft) O-SO -6,3 C -6,8 C
21.01.2013 16:00 -3,9 C 74 % 1004,6 hPa 0,0 l/m 11,2 km/h (2 Bft) O -7,8 C -8,1 C
21.01.2013 17:00 -4,4 C 71 % 1005,0 hPa 0,0 l/m 12,7 km/h (3 Bft) O-SO -8,9 C -9,0 C
21.01.2013 18:00 -5,3 C 75 % 1005,5 hPa 0,0 l/m 12,7 km/h (3 Bft) O-NO -9,0 C -10,3 C
21.01.2013 19:00 -5,9 C 83 % 1005,9 hPa 0,0 l/m 7,3 km/h (2 Bft) O-NO -8,3 C -8,9 C
21.01.2013 20:00 -5,9 C 85 % 1006,3 hPa 0,0 l/m 5,8 km/h (2 Bft) O-NO -8,0 C -7,9 C
21.01.2013 21:00 -5,9 C 85 % 1006,4 hPa 0,0 l/m 6,4 km/h (2 Bft) NO -8,0 C -8,4 C
21.01.2013 22:00 -6,0 C 85 % 1006,8 hPa 0,0 l/m 8,7 km/h (2 Bft) O-NO -8,2 C -9,9 C
21.01.2013 23:00 -6,3 C 85 % 1007,0 hPa 0,0 l/m 10,3 km/h (2 Bft) O-NO -8,3 C -10,8 C
22.01.2013 00:00 -6,5 C 85 % 1007,4 hPa 0,0 l/m 8,5 km/h (2 Bft) O-NO -8,6 C -10,1 C
22.01.2013 01:00 -6,9 C 85 % 1007,6 hPa 0,0 l/m 8,0 km/h (2 Bft) O-NO -9,0 C -10,4 C
22.01.2013 02:00 -7,2 C 85 % 1007,7 hPa 0,0 l/m 9,2 km/h (2 Bft) O-NO -9,3 C -11,2 C
22.01.2013 03:00 -7,2 C 84 % 1008,0 hPa 0,0 l/m 7,3 km/h (2 Bft) O-NO -9,4 C -10,5 C
22.01.2013 04:00 -7,2 C 84 % 1008,1 hPa 0,0 l/m 5,7 km/h (1 Bft) O-NO -9,4 C -9,3 C
22.01.2013 05:00 -7,1 C 84 % 1008,2 hPa 0,0 l/m 6,8 km/h (2 Bft) O-NO -9,4 C -10,0 C
22.01.2013 06:00 -6,9 C 83 % 1008,5 hPa 0,0 l/m 6,6 km/h (2 Bft) O-SO -9,3 C -9,5 C
22.01.2013 07:00 -6,9 C 84 % 1008,8 hPa 0,0 l/m 3,6 km/h (1 Bft) O -9,1 C -7,5 C
22.01.2013 08:00 -6,7 C 84 % 1009,2 hPa 0,0 l/m 5,3 km/h (1 Bft) O-NO -8,9 C -8,7 C
22.01.2013 09:00 -6,3 C 84 % 1009,6 hPa 0,0 l/m 3,7 km/h (1 Bft) O-NO -8,5 C -7,2 C
22.01.2013 10:00 -5,6 C 83 % 1010,0 hPa 0,0 l/m 4,0 km/h (1 Bft) O-SO -8,0 C -6,5 C
22.01.2013 11:00 -5,0 C 81 % 1010,1 hPa 0,0 l/m 4,6 km/h (1 Bft) O-SO -7,8 C -6,4 C
22.01.2013 12:00 -4,7 C 79 % 1010,0 hPa 0,0 l/m 4,4 km/h (1 Bft) O-SO -7,7 C -6,0 C
22.01.2013 13:00 -4,6 C 78 % 1009,9 hPa 0,0 l/m 5,2 km/h (1 Bft) O-SO -7,8 C -6,1 C
22.01.2013 14:00 -4,6 C 78 % 1009,9 hPa 0,0 l/m 4,5 km/h (1 Bft) O-NO -7,9 C -6,1 C
22.01.2013 15:00 -5,1 C 79 % 1010,0 hPa 0,0 l/m 1,6 km/h (1 Bft) O-SO -8,2 C -5,3 C
22.01.2013 16:00 -5,3 C 81 % 1010,4 hPa 0,0 l/m 0,5 km/h (0 Bft) O-SO -8,1 C -5,3 C
22.01.2013 17:00 -5,7 C 82 % 1010,6 hPa 0,0 l/m 0,6 km/h (0 Bft) O-SO -8,2 C -5,7 C
22.01.2013 18:00 -5,8 C 83 % 1010,8 hPa 0,0 l/m 2,1 km/h (1 Bft) O-NO -8,1 C -5,8 C
22.01.2013 19:00 -5,7 C 84 % 1010,8 hPa 0,0 l/m 1,5 km/h (1 Bft) NO -8,0 C -5,7 C
22.01.2013 20:00 -5,7 C 84 % 1010,9 hPa 0,0 l/m 0,9 km/h (0 Bft) NO -7,9 C -5,7 C
22.01.2013 21:00 -5,6 C 84 % 1011,2 hPa 0,0 l/m 0,9 km/h (0 Bft) N-NO -7,9 C -5,8 C
22.01.2013 22:00 -5,8 C 84 % 1011,4 hPa 0,0 l/m 0,9 km/h (0 Bft) N-NO -8,0 C -5,8 C
22.01.2013 23:00 -5,8 C 85 % 1011,5 hPa 0,0 l/m 0,8 km/h (0 Bft) N-NO -7,9 C -5,8 C
23.01.2013 00:00 -5,8 C 85 % 1011,4 hPa 0,0 l/m 1,6 km/h (1 Bft) N-NO -7,9 C -5,8 C
23.01.2013 01:00 -5,7 C 86 % 1011,3 hPa 0,0 l/m 1,5 km/h (1 Bft) N-NO -7,7 C -5,7 C
23.01.2013 02:00 -5,6 C 86 % 1011,2 hPa 0,0 l/m 1,8 km/h (1 Bft) N-NO -7,6 C -5,6 C
23.01.2013 03:00 -5,4 C 86 % 1011,2 hPa 0,0 l/m 0,7 km/h (0 Bft) NO -7,4 C -5,4 C
23.01.2013 04:00 -5,4 C 86 % 1011,1 hPa 0,0 l/m 0,1 km/h (0 Bft) N -7,3 C -5,4 C
23.01.2013 05:00 -5,2 C 86 % 1010,9 hPa 0,0 l/m 0,8 km/h (0 Bft) N-NO -7,2 C -5,2 C
23.01.2013 06:00 -5,2 C 86 % 1010,8 hPa 0,0 l/m 0,3 km/h (0 Bft) N-NO -7,2 C -5,2 C
23.01.2013 07:00 -5,2 C 86 % 1011,0 hPa 0,0 l/m 0,2 km/h (0 Bft) N-NO -7,1 C -5,2 C
23.01.2013 08:00 -5,0 C 86 % 1011,4 hPa 0,0 l/m 0,2 km/h (0 Bft) NO -7,0 C -5,0 C
23.01.2013 09:00 -4,7 C 85 % 1011,5 hPa 0,0 l/m 1,3 km/h (1 Bft) NO -6,7 C -4,7 C
23.01.2013 10:00 -4,3 C 83 % 1011,5 hPa 0,0 l/m 1,6 km/h (1 Bft) O-SO -6,7 C -4,3 C
23.01.2013 11:00 -3,7 C 81 % 1011,6 hPa 0,0 l/m 0,3 km/h (0 Bft) O-SO -6,5 C -3,7 C
23.01.2013 12:00 -3,6 C 79 % 1011,5 hPa 0,0 l/m 0,8 km/h (0 Bft) O-SO -6,7 C -3,6 C
23.01.2013 13:00 -3,5 C 79 % 1011,4 hPa 0,0 l/m 0,2 km/h (0 Bft) O-SO -6,6 C -3,5 C
23.01.2013 14:00 -3,7 C 80 % 1011,5 hPa 0,0 l/m 0,3 km/h (0 Bft) O-SO -6,7 C -3,7 C
23.01.2013 15:00 -4,0 C 81 % 1011,6 hPa 0,0 l/m 0,6 km/h (0 Bft) SO -6,8 C -4,0 C
23.01.2013 16:00 -4,4 C 82 % 1011,7 hPa 0,0 l/m 1,1 km/h (1 Bft) O-SO -6,9 C -4,4 C
23.01.2013 17:00 -4,5 C 83 % 1011,8 hPa 0,0 l/m 0,4 km/h (0 Bft) S-SO -6,9 C -4,5 C
23.01.2013 18:00 -4,5 C 84 % 1011,8 hPa 0,0 l/m 0,5 km/h (0 Bft) S-SO -6,8 C -4,5 C
23.01.2013 19:00 -4,4 C 84 % 1011,7 hPa 0,0 l/m 0,2 km/h (0 Bft) S-SO -6,7 C -4,4 C
23.01.2013 20:00 -4,4 C 85 % 1011,6 hPa 0,0 l/m 0,8 km/h (0 Bft) S-SO -6,5 C -4,4 C
23.01.2013 21:00 -4,4 C 85 % 1011,9 hPa 0,0 l/m 2,4 km/h (1 Bft) SW -6,5 C -4,7 C
23.01.2013 22:00 -4,4 C 85 % 1012,1 hPa 0,0 l/m 0,9 km/h (0 Bft) SW -6,5 C -4,4 C
23.01.2013 23:00 -4,2 C 86 % 1012,2 hPa 0,0 l/m 0,4 km/h (0 Bft) S-SW -6,3 C -4,2 C
24.01.2013 00:00 -4,2 C 86 % 1012,2 hPa 0,0 l/m 0,5 km/h (0 Bft) W -6,2 C -4,2 C
24.01.2013 01:00 -4,2 C 86 % 1012,1 hPa 0,0 l/m 0,2 km/h (0 Bft) W -6,2 C -4,2 C
24.01.2013 02:00 -4,2 C 86 % 1012,0 hPa 0,0 l/m 0,0 km/h (0 Bft) N -6,2 C -4,2 C
24.01.2013 03:00 -4,1 C 86 % 1012,1 hPa 0,0 l/m 0,0 km/h (0 Bft) N -6,1 C -4,1 C
24.01.2013 04:00 -4,2 C 87 % 1012,0 hPa 0,0 l/m 0,0 km/h (0 Bft) N -6,0 C -4,2 C
24.01.2013 05:00 -4,2 C 87 % 1012,2 hPa 0,0 l/m 0,3 km/h (0 Bft) O-NO -6,0 C -4,2 C
24.01.2013 06:00 -4,1 C 87 % 1012,6 hPa 0,0 l/m 0,2 km/h (0 Bft) O-NO -5,9 C -4,1 C
24.01.2013 07:00 -4,1 C 87 % 1013,3 hPa 0,0 l/m 0,1 km/h (0 Bft) O-NO -5,9 C -4,1 C
24.01.2013 08:00 -4,1 C 87 % 1013,7 hPa 0,0 l/m 0,3 km/h (0 Bft) O-NO -5,9 C -4,1 C
24.01.2013 09:00 -3,7 C 87 % 1014,2 hPa 0,0 l/m 0,7 km/h (0 Bft) O-NO -5,6 C -3,7 C
24.01.2013 10:00 -3,0 C 85 % 1014,6 hPa 0,0 l/m 2,7 km/h (1 Bft) O-NO -5,2 C -3,0 C
24.01.2013 11:00 -2,1 C 81 % 1015,1 hPa 0,0 l/m 1,6 km/h (1 Bft) O-NO -4,8 C -2,1 C
24.01.2013 12:00 -1,7 C 78 % 1015,1 hPa 0,0 l/m 2,8 km/h (1 Bft) NO -5,0 C -2,1 C
24.01.2013 13:00 -1,8 C 79 % 1015,3 hPa 0,0 l/m 4,9 km/h (1 Bft) NO -5,0 C -3,3 C
24.01.2013 14:00 -1,7 C 78 % 1015,5 hPa 0,0 l/m 3,8 km/h (1 Bft) NO -5,0 C -2,5 C
24.01.2013 15:00 -1,7 C 77 % 1015,9 hPa 0,0 l/m 2,9 km/h (1 Bft) NO -5,2 C -2,2 C
24.01.2013 16:00 -2,0 C 78 % 1016,5 hPa 0,0 l/m 2,7 km/h (1 Bft) N -5,3 C -2,4 C
24.01.2013 17:00 -2,6 C 79 % 1017,2 hPa 0,0 l/m 2,1 km/h (1 Bft) N-NO -5,7 C -2,6 C
24.01.2013 18:00 -3,6 C 81 % 1017,7 hPa 0,0 l/m 1,5 km/h (1 Bft) NO -6,5 C -3,9 C
24.01.2013 19:00 -4,8 C 83 % 1018,4 hPa 0,0 l/m 2,4 km/h (1 Bft) NO -7,2 C -5,0 C
24.01.2013 20:00 -5,7 C 85 % 1019,2 hPa 0,0 l/m 2,2 km/h (1 Bft) NO -7,8 C -5,7 C
24.01.2013 21:00 -6,4 C 86 % 1019,9 hPa 0,0 l/m 1,2 km/h (1 Bft) NO -8,3 C -6,4 C
24.01.2013 22:00 -7,0 C 87 % 1020,5 hPa 0,0 l/m 1,9 km/h (1 Bft) O-NO -8,8 C -7,0 C
24.01.2013 23:00 -7,5 C 87 % 1021,2 hPa 0,0 l/m 0,4 km/h (0 Bft) O-NO -9,3 C -7,5 C
25.01.2013 00:00 -8,1 C 88 % 1021,6 hPa 0,0 l/m 1,0 km/h (0 Bft) O-NO -9,7 C -8,1 C
25.01.2013 01:00 -8,7 C 87 % 1021,7 hPa 0,0 l/m 0,1 km/h (0 Bft) NO -10,5 C -8,7 C
25.01.2013 02:00 -9,6 C 87 % 1021,9 hPa 0,0 l/m 0,0 km/h (0 Bft) N -11,4 C -9,6 C
25.01.2013 03:00 -10,1 C 87 % 1022,2 hPa 0,0 l/m 0,0 km/h (0 Bft) N -11,9 C -10,1 C
25.01.2013 04:00 -10,4 C 86 % 1022,7 hPa 0,0 l/m 0,1 km/h (0 Bft) NO -12,3 C -10,4 C
25.01.2013 05:00 -9,3 C 87 % 1023,1 hPa 0,0 l/m 0,0 km/h (0 Bft) NO -11,0 C -9,3 C
25.01.2013 06:00 -8,5 C 87 % 1023,2 hPa 0,0 l/m 0,5 km/h (0 Bft) NW -10,2 C -8,5 C
25.01.2013 07:00 -8,3 C 87 % 1023,5 hPa 0,0 l/m 0,8 km/h (0 Bft) S-SW -10,0 C -8,3 C
25.01.2013 08:00 -8,1 C 87 % 1023,8 hPa 0,0 l/m 0,7 km/h (0 Bft) W -9,9 C -8,1 C
25.01.2013 09:00 -7,1 C 87 % 1023,9 hPa 0,0 l/m 0,5 km/h (0 Bft) W-SW -8,9 C -7,1 C
25.01.2013 10:00 -5,8 C 85 % 1024,0 hPa 0,0 l/m 0,3 km/h (0 Bft) W-SW -7,9 C -5,8 C
25.01.2013 11:00 -4,5 C 83 % 1024,2 hPa 0,0 l/m 1,6 km/h (1 Bft) NW -6,9 C -4,5 C
25.01.2013 12:00 -3,3 C 81 % 1023,9 hPa 0,0 l/m 0,7 km/h (0 Bft) NW -6,1 C -3,3 C
25.01.2013 13:00 -2,5 C 79 % 1023,6 hPa 0,0 l/m 1,6 km/h (1 Bft) W -5,6 C -2,7 C
25.01.2013 14:00 -1,8 C 77 % 1022,7 hPa 0,0 l/m 1,4 km/h (1 Bft) S-SO -5,3 C -1,8 C
25.01.2013 15:00 -2,8 C 76 % 1022,6 hPa 0,0 l/m 2,4 km/h (1 Bft) O-SO -6,5 C -3,0 C
25.01.2013 16:00 -4,3 C 78 % 1022,6 hPa 0,0 l/m 0,0 km/h (0 Bft) N -7,5 C -4,3 C
25.01.2013 17:00 -6,1 C 80 % 1022,6 hPa 0,0 l/m 0,4 km/h (0 Bft) SO -8,9 C -6,1 C
25.01.2013 18:00 -7,3 C 84 % 1022,3 hPa 0,0 l/m 1,6 km/h (1 Bft) SO -9,6 C -7,3 C
25.01.2013 19:00 -7,8 C 86 % 1021,6 hPa 0,0 l/m 3,8 km/h (1 Bft) S-SO -9,7 C -9,0 C
25.01.2013 20:00 -7,5 C 86 % 1021,7 hPa 0,0 l/m 1,7 km/h (1 Bft) SO -9,4 C -7,7 C
25.01.2013 21:00 -8,5 C 86 % 1021,3 hPa 0,0 l/m 0,4 km/h (0 Bft) SO -10,4 C -8,5 C
25.01.2013 22:00 -9,0 C 86 % 1020,6 hPa 0,0 l/m 3,6 km/h (1 Bft) SO -10,9 C -10,1 C
25.01.2013 23:00 -9,5 C 86 % 1020,4 hPa 0,0 l/m 1,6 km/h (1 Bft) S-SO -11,4 C -9,5 C
26.01.2013 00:00 -10,3 C 86 % 1019,6 hPa 0,0 l/m 1,5 km/h (1 Bft) SO -12,1 C -10,3 C
26.01.2013 01:00 -10,7 C 87 % 1018,7 hPa 0,0 l/m 3,1 km/h (1 Bft) SO -12,4 C -11,3 C
26.01.2013 02:00 -11,0 C 87 % 1018,3 hPa 0,0 l/m 3,8 km/h (1 Bft) SO -12,7 C -12,2 C
26.01.2013 03:00 -11,3 C 87 % 1017,6 hPa 0,0 l/m 4,9 km/h (1 Bft) SO -12,9 C -12,8 C
26.01.2013 04:00 -11,2 C 88 % 1016,9 hPa 0,0 l/m 5,3 km/h (1 Bft) SO -12,8 C -13,8 C
26.01.2013 05:00 -11,1 C 87 % 1016,7 hPa 0,0 l/m 1,9 km/h (1 Bft) S-SO -12,8 C -11,4 C
26.01.2013 06:00 -11,2 C 87 % 1016,3 hPa 0,0 l/m 3,2 km/h (1 Bft) SO -13,0 C -12,1 C
26.01.2013 07:00 -11,6 C 86 % 1016,1 hPa 0,0 l/m 4,1 km/h (1 Bft) SO -13,5 C -13,2 C
26.01.2013 08:00 -11,9 C 86 % 1015,8 hPa 0,0 l/m 6,4 km/h (2 Bft) O-SO -13,8 C -15,6 C
26.01.2013 09:00 -10,5 C 86 % 1015,6 hPa 0,0 l/m 5,0 km/h (1 Bft) SO -12,4 C -12,6 C
26.01.2013 10:00 -8,7 C 86 % 1015,4 hPa 0,0 l/m 8,9 km/h (2 Bft) SO -10,6 C -12,9 C
26.01.2013 11:00 -7,1 C 85 % 1015,0 hPa 0,0 l/m 6,4 km/h (2 Bft) O-SO -9,2 C -9,8 C
26.01.2013 12:00 -5,3 C 83 % 1014,6 hPa 0,0 l/m 8,7 km/h (2 Bft) SO -7,7 C -8,7 C
26.01.2013 13:00 -4,6 C 82 % 1014,2 hPa 0,0 l/m 7,7 km/h (2 Bft) SO -7,2 C -7,4 C
26.01.2013 14:00 -4,1 C 81 % 1013,6 hPa 0,0 l/m 8,3 km/h (2 Bft) SO -6,8 C -6,9 C
26.01.2013 15:00 -4,7 C 81 % 1012,8 hPa 0,0 l/m 8,2 km/h (2 Bft) SO -7,5 C -8,0 C
26.01.2013 16:00 -5,6 C 82 % 1012,2 hPa 0,0 l/m 7,3 km/h (2 Bft) SO -8,2 C -8,6 C
26.01.2013 17:00 -6,5 C 83 % 1012,4 hPa 0,0 l/m 3,9 km/h (1 Bft) SO -8,8 C -7,5 C
26.01.2013 18:00 -6,6 C 85 % 1012,3 hPa 0,0 l/m 4,7 km/h (1 Bft) SO -8,7 C -8,1 C
26.01.2013 19:00 -6,1 C 85 % 1011,7 hPa 0,0 l/m 4,9 km/h (1 Bft) S-SO -8,2 C -7,7 C
26.01.2013 20:00 -5,6 C 85 % 1011,5 hPa 0,0 l/m 5,3 km/h (1 Bft) S-SO -7,7 C -7,7 C
26.01.2013 21:00 -5,1 C 85 % 1011,2 hPa 0,0 l/m 5,5 km/h (1 Bft) S-SW -7,2 C -7,0 C
26.01.2013 22:00 -4,2 C 87 % 1010,9 hPa 0,0 l/m 7,5 km/h (2 Bft) S -6,1 C -7,0 C
26.01.2013 23:00 -3,7 C 89 % 1010,5 hPa 0,0 l/m 8,9 km/h (2 Bft) S-SW -5,4 C -6,7 C
27.01.2013 00:00 -3,4 C 89 % 1010,4 hPa 0,0 l/m 10,0 km/h (2 Bft) SW -5,0 C -7,1 C
27.01.2013 01:00 -3,1 C 89 % 1010,3 hPa 0,0 l/m 8,5 km/h (2 Bft) SW -4,6 C -6,3 C
27.01.2013 02:00 -2,6 C 89 % 1010,1 hPa 0,0 l/m 6,3 km/h (2 Bft) S-SW -4,2 C -4,5 C
27.01.2013 03:00 -2,3 C 89 % 1009,9 hPa 0,0 l/m 4,3 km/h (1 Bft) S-SW -3,8 C -3,3 C
27.01.2013 04:00 -2,0 C 88 % 1009,9 hPa 0,0 l/m 4,4 km/h (1 Bft) SW -3,7 C -3,0 C
27.01.2013 05:00 -2,2 C 88 % 1009,6 hPa 0,0 l/m 5,6 km/h (1 Bft) S-SW -3,9 C -4,0 C
27.01.2013 06:00 -1,8 C 88 % 1009,0 hPa 0,0 l/m 4,7 km/h (1 Bft) S-SW -3,6 C -3,0 C
27.01.2013 07:00 -1,8 C 88 % 1008,5 hPa 0,0 l/m 7,6 km/h (2 Bft) S-SW -3,6 C -4,3 C
27.01.2013 08:00 -1,4 C 88 % 1008,1 hPa 0,0 l/m 9,5 km/h (2 Bft) S -3,2 C -4,8 C
27.01.2013 09:00 -0,5 C 87 % 1007,7 hPa 0,0 l/m 12,2 km/h (3 Bft) S-SW -2,5 C -4,3 C
27.01.2013 10:00 0,1 C 86 % 1007,2 hPa 0,0 l/m 10,5 km/h (2 Bft) S-SW -2,0 C -3,1 C
27.01.2013 11:00 1,0 C 84 % 1006,4 hPa 0,0 l/m 8,9 km/h (2 Bft) S -1,5 C -1,6 C
27.01.2013 12:00 1,7 C 81 % 1005,1 hPa 0,0 l/m 9,2 km/h (2 Bft) S -1,3 C -1,0 C
27.01.2013 13:00 1,4 C 81 % 1004,4 hPa 0,0 l/m 11,6 km/h (2 Bft) S -1,5 C -1,8 C
27.01.2013 14:00 0,9 C 85 % 1003,6 hPa 0,0 l/m 11,4 km/h (2 Bft) S-SO -1,3 C -2,1 C
27.01.2013 15:00 0,7 C 88 % 1002,6 hPa 0,0 l/m 9,2 km/h (2 Bft) SO -1,1 C -2,1 C
27.01.2013 16:00 0,6 C 89 % 1001,9 hPa 0,0 l/m 10,1 km/h (2 Bft) S-SW -1,0 C -2,5 C
27.01.2013 17:00 0,6 C 90 % 1001,7 hPa 0,0 l/m 8,0 km/h (2 Bft) SO -0,8 C -1,8 C
27.01.2013 18:00 0,6 C 91 % 1001,5 hPa 0,0 l/m 8,3 km/h (2 Bft) S-SW -0,7 C -1,9 C
27.01.2013 19:00 0,8 C 92 % 1001,6 hPa 0,0 l/m 8,9 km/h (2 Bft) S-SW -0,4 C -1,7 C
27.01.2013 20:00 1,0 C 92 % 1001,7 hPa 0,0 l/m 9,9 km/h (2 Bft) SW -0,1 C -1,9 C
27.01.2013 21:00 1,3 C 93 % 1002,1 hPa 0,0 l/m 7,7 km/h (2 Bft) S-SW 0,3 C -0,9 C
27.01.2013 22:00 1,5 C 93 % 1002,9 hPa 0,0 l/m 9,3 km/h (2 Bft) W-SW 0,5 C -1,1 C
27.01.2013 23:00 1,9 C 93 % 1003,9 hPa 0,0 l/m 11,1 km/h (2 Bft) W 0,9 C -1,2 C
Min-Datum _ 26.01.13 21.01.13 27.01.13 - 21.01.13 - 26.01.13 26.01.13
_ Min-Zeit 08:21 17:51 18:01 - 01:46 - 08:21 08:41
Minimum _ -12,1 C 67 % 1001,4 hPa - 0,0 km/h (0 Bft) - -13,9 C -18,4 C
Max-Datum _ 27.01.13 27.01.13 25.01.13 21.01.13 21.01.13 - 27.01.13 27.01.13
_ Max-Zeit 23:26 20:51 11:16 00:01 04:36 - 23:26 21:21
Maximum _ 2,0 C 93 % 1024,3 hPa 0,0 l/m 27,7 km/h
O-NO (4 Bft)
- 1,0 C 1,3 C
Durchschnitt _ -4,8 C 84 % 1012,0 hPa #0,0 l/m 4,6 km/h (1 Bft) O-NO -7,0 C -6,2 C
(c) by David Heller